DELTA 1 DEB

Satellite information

Favourite Embed

Satellite Type and Status

DEBRISIN ORBIT

Key statistics

Satellite DELTA 1 DEB at a glance.

Uptime

18990

Days in orbit

Revolutions

≈ 12.6

Per day

Orbit

SSO

Sun Synchronous Orbit

Inclination

101.8

Latest

Satellite identification and parameters

Extended collection of information and parameters for DELTA 1 DEB.

Object identification

Identified? True

Debris? True

Object name: DELTA 1 DEB

International designator: 1973-086CA

Object number (NORAD): 7082

Object ID (CCSDS): 7082

Country: UNITED STATES OF AMERICA (US)

Current information (Y/N): Y

RCS size: MEDIUM

Orbital parameters

Period: 114.136 minutes

Inclination: 101.7847 deg

SMA: 7794.248 km

Apoapsis: 1443.857 km

Periapsis: 1388.369 km

RAAN: 175.5395 deg

Eccentricy: 0.0035596

Argument of periapsis: 6.7736 deg

Mean anomaly: 179.6873 deg

Mean motion: 12.61657364 rev/day

Mean motion (dot): 0.00000633 rev/day2

B* drag term: 0.0038204 1/REarth

Two-line elements (TLE)

Creation date: Nov. 2, 2025, 3:46 p.m.

Reference frame: TEME

Reference center: EARTH

Epoch: Nov. 2, 2025, 9:53 a.m. UTC

TLE line 0: 0 DELTA 1 DEB

TLE line 1: 1 7082U 73086CA 25306.41235058 .00000633 00000-0 38204-2 0 9996

TLE line 2: 2 7082 101.7847 175.5395 0035596 6.7736 179.6873 12.61657364380169

Live tracking on map

Real-time ground track for satellite DELTA 1 DEB.

In-orbit conjunctions

A list of the most updated potential collisions computed for object DELTA 1 DEB.

Target Orbit TCA Probability of collision Miss distance Type
DELTA 1 R/B SSO 2024-10-20 20:13:33 0.0001202805 653.0 (m) ROCKET BODY
OSCAR 5 SSO 2024-10-11 13:00:14 0.0003146974 167.0 (m) PAYLOAD

Associated space launch

Meteorological satellite using radiometric imaging

DELTA 1 DEB was lifted into orbit during the mission ‘Delta 0300 | NOAA 3’, on board a Delta 0300 space rocket.

The launch took place on Nov. 6, 1973, 5:02 p.m. from Space Launch Complex 2W.

For more information about the launch, click the button.

Launch to space Delta 0300 | NOAA 3
Delta 0300 | NOAA 3

Agency: N/A

Status: Launch Successful

Launch date: Nov. 6, 1973, 5:02 p.m. UTC

Rocket: Delta 0300

Launch pad: Space Launch Complex 2W

Location: Vandenberg SFB, CA, USA

...

Latest news about this satellite

There are no fresh news available about this satellite. Check back as we update our databases every day.


Newsletter sign-up

Weekly statistics, charts and insights to help you stay on top of the space industry.